Home   Weather   Yakutsk   Past weeks
Flag for Russia

Past Weather in Yakutsk, Russia — Yesterday and Last 2 Weeks

Now
23 °F

Clear.


Feels Like: 23 °F
Forecast: 35 / 27 °F
Wind: 1 mph from South

Location: Jakutsk

Current Time: Oct 20, 2019 at 5:58:38 am

Latest Report: Oct 20, 2019 at 5:00 am


Visibility: 10 mi

Pressure: 30.04 "Hg

Humidity: 100%

Dew Point: 23 °F

Location of YakutskLocation

Past Weather in Yakutsk — Graph

°F

Yakutsk Temperature Yesterday

Maximum temperature yesterday: 34 °F (at 2:30 pm)
Minimum temperature yesterday: 27 °F (at 5:30 am)
Average temperature yesterday: 30 °F

High & Low Weather Summary for the Past Weeks

 TemperatureHumidityPressure
High39 °F (Oct 7, 2:00 pm)100% (Oct 9, 5:00 am)30.07 "Hg (Oct 9, 5:00 am)
Low23 °F (Oct 7, 6:00 am)48% (Oct 7, 1:30 pm)29.56 "Hg (Oct 9, 12:00 pm)
Average29 °F84%29.83 "Hg
* Reported Oct 5 4:00 am — Oct 20 4:30 am, Yakutsk. Weather by CustomWeather, © 2019

Note: Actual official high and low records may vary slightly from our data, if they occured in-between our weather recording intervals... More about our weather records

Advertising

Yakutsk Weather History for the Previous 24 Hours

Scroll right to see more
 ConditionsComfort  
Time TempWeatherWind HumidityBarometerVisibility
4:30 am
Sun, Oct 20
25 °FClear.3 mph93%30.04 "Hg10 mi
4:00 am25 °FClear.3 mph100%30.01 "Hg10 mi
3:30 am25 °FClear.3 mph100%30.01 "Hg10 mi
3:00 am27 °FClear.6 mph100%30.01 "Hg10 mi
2:30 am28 °FClear.3 mph93%30.01 "Hg10 mi
2:00 am28 °FClear.3 mph100%30.01 "Hg10 mi
1:30 am32 °FClear.3 mph93%29.98 "Hg10 mi
1:00 am34 °FPassing clouds.3 mph87%29.98 "HgN/A
12:30 am36 °FPassing clouds.3 mph87%29.98 "HgN/A
12:00 am34 °FPassing clouds.6 mph93%29.98 "HgN/A
11:30 pm
Sat, Oct 19
34 °FPassing clouds.3 mph93%29.98 "HgN/A
11:00 pm32 °FPassing clouds.3 mph93%29.98 "HgN/A
10:30 pm32 °FPassing clouds.3 mph93%29.95 "HgN/A
10:00 pm32 °FPassing clouds.6 mph93%29.95 "HgN/A
9:30 pm30 °FPassing clouds.3 mph93%29.95 "HgN/A
9:00 pm30 °FPassing clouds.3 mph93%29.95 "HgN/A
8:30 pm30 °FPassing clouds.3 mph93%29.92 "HgN/A
8:00 pm28 °FPassing clouds.6 mph100%29.92 "HgN/A
7:30 pm28 °FPassing clouds.3 mph100%29.92 "HgN/A
7:00 pm28 °FIce fog.6 mph100%29.92 "Hg3 mi
6:30 pm28 °FIce fog.6 mph100%29.89 "Hg1 mi
6:00 pm28 °FIce fog.6 mph100%29.89 "Hg1 mi
5:30 pm28 °FIce fog.6 mph100%29.86 "Hg1 mi
5:00 pm30 °FClear.6 mph93%29.86 "Hg10 mi
4:30 pm32 °FClear.6 mph87%29.86 "Hg10 mi
4:00 pm34 °FClear.No wind87%29.83 "Hg10 mi
3:30 pm34 °FSunny.1 mph81%29.83 "Hg10 mi
3:00 pm34 °FSunny.3 mph87%29.83 "Hg10 mi
2:30 pm34 °FPassing clouds.3 mph87%29.83 "HgN/A
2:00 pm32 °FPassing clouds.3 mph93%29.83 "HgN/A
1:30 pm32 °FPassing clouds.3 mph93%29.83 "HgN/A
1:00 pm32 °FPassing clouds.3 mph93%29.83 "HgN/A
12:30 pm32 °FPassing clouds.1 mph93%29.83 "HgN/A
12:00 pm32 °FScattered clouds.1 mph93%29.83 "HgN/A
11:30 am30 °FPartly sunny.3 mph100%29.83 "HgN/A
11:00 am28 °FLow clouds.3 mph100%29.86 "HgN/A
10:30 am28 °FLow clouds.3 mph100%29.86 "HgN/A
10:00 am28 °FLow clouds.3 mph93%29.86 "HgN/A
9:30 am28 °FLow clouds.3 mph93%29.86 "HgN/A
9:00 am27 °FIce fog.3 mph100%29.89 "Hg1 mi
8:30 am27 °FChilly.3 mph100%29.89 "Hg1 mi
8:00 am27 °FIce fog.3 mph100%29.89 "Hg1 mi
7:30 am27 °FIce fog.3 mph100%29.86 "Hg1 mi
7:00 am27 °FChilly.3 mph100%29.86 "Hg1 mi
6:30 am27 °FChilly.3 mph100%29.89 "Hg1 mi
6:00 am27 °FChilly.3 mph100%29.89 "Hg1 mi
5:30 am27 °FChilly.3 mph100%29.89 "Hg1 mi
5:00 am28 °FIce fog.3 mph93%29.89 "Hg1 mi
Weather by CustomWeather, © 2019

See weather overview